Wind_Speed
98 99 95 92 87 86 78 84 85 84 80 76 72 69 67 65 62 59 55 52 45 44 41 37 36 35 34 32 30 27 26 24 26 26 24 25 23 24 23 23 24 24 25 26 26
96 101 96 96 94 92 87 84 85 86 84 80 77 75 72 70 67 63 58 55 52 47 44 39 39 38 37 35 33 29 29 28 30 28 28 26 26 27 26 22 22 24 23 24 21
99 100 103 103 95 94 88 89 88 89 90 86 82 80 76 75 71 68 64 60 58 53 49 46 44 42 40 39 36 33 33 33 33 32 32 30 30 29 29 28 29 27 26 25 23
100 103 103 104 98 99 96 93 92 92 91 90 86 86 82 78 76 73 71 66 62 59 54 52 51 47 44 43 40 37 36 37 37 36 35 32 29 29 30 30 31 29 26 24 24
86 104 107 107 108 104 104 102 94 94 91 91 93 88 87 84 81 78 75 72 69 65 61 58 55 54 48 45 44 42 39 40 38 39 37 32 30 30 31 30 33 30 30 27 29
65 85 107 109 109 112 107 106 104 98 97 94 93 95 91 89 86 83 80 77 74 69 66 64 60 57 53 49 48 48 45 41 41 41 40 36 34 33 33 32 33 34 33 31 32
41 66 89 110 111 109 113 107 105 104 104 99 96 93 92 96 91 88 86 83 79 76 71 68 68 59 61 53 52 50 45 43 44 43 44 40 38 35 38 38 33 36 35 36 37
52 48 67 88 111 114 112 112 113 107 101 103 105 97 96 95 97 94 91 88 84 81 77 74 72 69 66 62 57 56 51 49 44 41 43 41 41 39 39 40 38 38 38 40 41
74 58 53 67 94 111 118 114 121 115 114 107 105 106 99 96 99 97 95 94 90 87 83 80 77 73 71 67 64 62 59 55 52 48 45 42 43 41 39 39 40 42 43 42 45
82 72 60 58 72 94 113 122 118 122 120 117 116 109 104 107 100 98 97 98 95 92 89 85 80 78 74 73 72 71 65 58 55 51 49 47 47 40 41 44 42 42 43 41 42
93 88 79 59 61 79 98 115 120 120 118 121 126 124 107 108 110 104 100 97 98 97 92 90 84 79 84 80 75 73 66 64 63 58 53 49 52 46 41 45 46 43 42 43 45
96 92 89 83 72 71 83 96 115 123 130 125 123 124 119 115 112 115 106 102 99 96 97 93 86 88 88 83 77 76 72 69 68 66 60 56 53 49 42 46 46 43 46 48 49
102 99 98 92 82 74 72 88 104 123 130 135 128 124 122 123 117 109 113 108 104 101 97 95 93 94 90 86 83 80 78 78 74 71 65 62 60 57 49 46 47 49 49 50 53
109 106 108 105 99 85 73 76 95 115 135 135 137 126 126 126 122 123 116 111 112 106 104 101 95 94 92 89 88 86 84 82 80 76 70 67 61 63 59 55 55 54 53 54 56
118 116 114 113 105 104 89 85 88 114 134 137 135 137 132 122 120 124 123 125 114 111 107 101 101 98 95 94 95 90 88 86 84 81 75 69 66 64 64 60 61 61 63 62 59
128 126 122 120 113 109 102 100 101 114 131 126 135 134 137 133 124 123 123 122 121 119 109 104 103 101 96 94 93 93 92 91 87 83 77 73 71 63 67 66 68 67 67 65 62
137 134 132 127 115 117 117 115 115 116 119 121 120 130 131 135 137 131 122 120 122 122 115 111 107 103 101 100 97 94 95 93 91 85 78 75 77 67 71 73 73 71 67 66 65
137 135 131 129 122 123 124 124 123 116 110 108 116 123 134 133 136 136 137 129 125 123 121 117 115 106 104 102 100 101 101 100 96 91 87 83 82 76 74 73 76 74 70 67 66
133 134 133 123 121 127 123 128 117 112 100 102 116 127 130 138 136 138 134 130 128 123 119 116 115 111 110 110 109 104 98 100 99 94 88 85 81 80 79 79 76 73 72 70 69
121 125 126 120 120 125 129 123 116 110 108 113 114 121 124 126 132 133 133 130 125 123 120 116 118 113 113 114 112 108 106 105 101 96 91 83 79 76 79 78 75 74 76 76 72
113 118 116 117 121 126 128 120 112 104 112 106 116 113 117 124 123 131 132 128 123 123 126 122 119 116 116 114 110 110 108 105 103 99 93 88 84 81 82 81 80 79 78 77 75
107 110 110 116 119 122 123 115 109 111 121 111 114 114 113 119 123 123 130 126 127 126 122 121 121 120 117 115 114 111 106 105 104 100 98 92 84 83 82 85 87 85 82 81 79
99 105 111 114 113 118 119 116 112 117 115 123 106 113 108 116 125 123 125 130 130 125 121 117 121 121 120 118 115 113 110 107 102 99 96 95 84 86 87 88 87 88 86 82 80
93 103 105 110 106 111 113 112 110 114 118 121 112 110 117 117 120 126 126 125 130 129 123 117 117 119 121 118 114 111 108 108 106 103 97 95 91 90 89 90 90 87 83 82 82
89 93 96 98 103 106 108 111 114 113 119 111 122 114 113 116 118 123 130 126 125 126 129 124 116 114 116 121 121 113 109 110 108 104 103 95 94 93 93 94 92 86 83 82 83
81 85 88 92 99 105 109 115 105 107 114 112 121 111 110 116 118 111 122 125 123 120 123 127 121 113 114 112 112 111 111 112 109 108 105 100 94 92 94 92 90 90 89 88 86
75 80 84 88 94 99 105 108 105 104 106 111 113 108 111 117 114 115 117 130 131 125 121 119 125 123 118 112 110 109 100 103 103 102 101 101 96 104 103 99 96 92 88 86 86
Wind_Direction
222 220 220 219 226 226 229 233 230 226 227 227 229 228 231 234 237 237 236 240 237 237 237 237 241 245 250 253 260 259 267 273 277 280 281 282 292 291 297 297 292 294 298 301 303
224 225 223 220 225 230 225 225 232 229 229 228 228 230 230 234 236 237 238 239 239 235 237 237 240 244 247 249 254 258 261 268 271 277 281 284 287 292 297 298 296 298 301 304 310
224 225 225 222 229 224 228 229 232 233 232 229 231 231 230 232 234 237 238 237 240 239 236 241 242 239 243 246 250 255 259 263 265 270 275 279 281 286 291 296 298 297 295 304 309
228 224 225 224 229 226 226 228 227 228 233 232 229 231 231 232 233 234 237 237 240 242 241 239 246 242 243 244 246 251 256 261 262 265 269 271 276 281 284 289 292 294 297 298 300
234 230 225 227 229 227 227 230 228 228 230 235 235 231 231 231 232 234 235 238 239 241 244 243 243 245 247 246 247 248 252 257 259 264 264 266 272 276 280 282 287 290 294 299 300
243 234 231 227 227 228 228 231 233 227 228 232 236 236 233 232 232 233 235 236 238 240 242 245 245 244 245 247 245 244 248 250 254 258 262 266 269 275 278 278 283 288 289 294 299
279 244 235 232 228 227 227 231 231 228 225 225 233 238 238 235 233 233 234 236 237 239 240 243 247 241 247 247 249 244 242 247 253 256 260 263 268 272 275 276 276 281 287 289 292
284 271 244 236 234 228 228 229 231 230 230 230 227 233 239 238 236 233 234 235 236 237 239 240 243 248 249 250 250 249 248 248 249 256 260 264 268 267 270 277 276 276 283 289 291
288 283 260 248 235 234 230 229 230 230 232 229 228 232 232 239 239 238 236 235 236 236 237 239 241 245 247 250 251 249 252 250 252 251 259 262 266 268 272 276 278 282 284 288 288
287 283 273 259 248 236 233 231 231 230 231 232 234 234 238 234 235 239 239 238 236 236 237 238 239 242 245 247 248 248 250 255 256 256 257 257 262 268 271 273 278 284 289 296 300
285 284 279 264 254 245 235 233 233 230 232 232 235 236 232 233 231 232 237 240 240 238 239 238 238 241 240 242 245 250 252 254 256 257 257 254 256 258 262 270 277 280 285 291 296
278 278 276 273 257 246 242 236 233 233 231 230 234 236 234 233 235 230 231 235 240 241 239 240 240 238 241 242 243 245 249 251 253 255 256 258 260 260 262 269 276 279 284 285 288
275 274 273 269 265 251 241 239 239 232 232 231 230 233 235 235 234 233 233 232 235 238 241 242 238 240 241 242 245 246 247 250 252 254 254 256 260 264 263 264 266 269 273 280 284
269 269 270 269 268 259 243 241 240 237 232 231 230 228 232 235 236 238 233 235 233 234 237 239 242 244 244 246 246 246 247 249 252 253 256 256 258 267 269 270 272 272 273 276 281
266 265 264 265 263 263 254 244 243 238 233 229 229 229 228 232 234 236 239 236 235 235 234 236 238 241 242 243 245 246 248 249 251 254 256 259 260 265 267 272 274 275 278 280 284
264 264 262 262 260 261 257 251 248 237 234 229 229 229 230 230 232 236 235 238 239 238 237 239 240 241 242 244 247 249 251 253 254 255 256 260 262 262 268 269 273 276 279 280 282
260 259 258 257 257 257 255 253 246 239 233 231 227 229 231 232 231 232 235 235 238 240 241 243 242 244 245 244 246 248 250 251 253 255 257 256 258 257 264 269 271 274 277 280 281
256 254 252 252 250 249 250 250 246 231 232 229 228 227 229 229 232 234 232 235 237 239 240 242 241 241 243 245 245 244 246 248 250 253 254 255 260 262 264 266 270 271 273 277 281
249 249 249 247 245 246 246 245 240 233 231 229 228 225 226 229 230 233 235 237 238 238 239 240 241 241 242 245 246 247 248 248 249 250 253 256 260 264 264 266 268 272 275 276 280
245 244 244 243 240 240 242 240 237 235 228 225 226 225 225 229 230 232 234 236 238 240 238 238 240 241 242 243 245 247 249 250 252 254 255 257 258 262 265 266 269 270 273 277 280
240 242 242 240 235 235 236 235 236 229 230 226 224 225 223 224 228 229 230 231 234 237 239 239 239 239 241 244 247 248 249 251 253 253 255 256 257 260 262 264 266 268 270 273 278
237 239 238 235 233 233 235 233 233 230 224 226 225 224 221 222 225 229 230 229 232 234 237 239 241 242 242 242 243 244 246 249 251 254 256 257 256 258 262 263 266 268 270 272 276
234 234 233 233 232 232 232 231 229 230 225 221 224 223 222 220 223 226 229 229 229 231 234 236 240 242 243 243 244 247 248 249 250 252 254 256 259 259 260 263 265 267 270 274 277
232 232 229 231 230 231 231 230 226 226 230 222 220 223 220 219 220 221 225 229 231 229 231 233 236 239 241 242 243 246 248 249 249 250 254 256 256 258 259 261 264 267 271 274 275
230 230 229 229 229 229 228 228 225 221 228 226 221 219 221 220 219 221 221 226 231 230 229 231 234 237 240 244 245 245 246 247 249 253 255 256 257 259 261 262 266 270 272 270 272
228 230 228 226 226 224 225 228 224 220 222 225 226 217 221 223 221 220 221 223 229 232 231 229 231 233 238 239 242 245 247 249 250 252 255 257 257 259 260 261 263 267 269 272 273
224 224 224 221 222 222 223 225 222 221 220 222 225 225 221 221 221 220 220 221 223 228 232 230 231 231 233 237 238 240 245 248 251 254 256 257 258 259 262 266 268 270 272 272 272
Height
10667 10674 10681 10689 10699 10708 10714 10723 10729 10735 10742 10749 10756 10762 10767 10773 10778 10783 10788 10793 10797 10800 10803 10807 10808 10811 10814 10815 10817 10819 10820 10822 10822 10823 10825 10825 10826 10826 10826 10824 10823 10821 10820 10819 10817
10652 10662 10667 10676 10684 10692 10701 10709 10717 10723 10730 10737 10743 10750 10756 10762 10768 10774 10780 10783 10788 10793 10797 10800 10803 10805 10807 10809 10812 10813 10815 10816 10817 10819 10820 10821 10822 10822 10821 10821 10819 10818 10817 10814 10813
10638 10644 10654 10662 10670 10677 10686 10695 10703 10710 10717 10724 10731 10737 10743 10750 10757 10764 10768 10773 10778 10783 10789 10793 10796 10799 10800 10803 10805 10807 10809 10811 10812 10814 10815 10816 10817 10817 10816 10817 10816 10814 10812 10810 10809
10623 10630 10640 10646 10655 10662 10669 10679 10687 10695 10702 10709 10716 10723 10730 10737 10743 10750 10756 10762 10768 10773 10779 10784 10788 10792 10794 10797 10799 10801 10803 10805 10807 10809 10810 10812 10812 10812 10812 10812 10812 10811 10810 10807 10805
10605 10615 10622 10628 10637 10645 10653 10660 10669 10677 10686 10695 10702 10709 10717 10722 10729 10737 10743 10750 10756 10763 10768 10773 10779 10783 10787 10790 10792 10794 10797 10799 10801 10802 10805 10806 10807 10807 10807 10807 10806 10806 10806 10805 10802
10588 10595 10604 10612 10621 10629 10637 10644 10652 10661 10669 10679 10688 10695 10702 10706 10717 10723 10730 10736 10743 10750 10757 10762 10768 10773 10779 10782 10785 10788 10791 10793 10795 10796 10799 10800 10801 10801 10801 10802 10801 10800 10800 10800 10798
10576 10579 10584 10592 10604 10611 10619 10626 10633 10642 10651 10661 10670 10678 10687 10690 10702 10708 10714 10722 10729 10737 10743 10751 10756 10764 10768 10774 10776 10780 10784 10785 10788 10790 10791 10794 10794 10796 10794 10795 10796 10794 10794 10794 10792
10558 10563 10566 10570 10580 10590 10597 10606 10614 10622 10632 10642 10651 10661 10669 10678 10685 10691 10699 10707 10715 10722 10731 10738 10745 10753 10758 10765 10767 10771 10775 10778 10779 10782 10783 10787 10787 10789 10789 10788 10789 10788 10788 10787 10786
10531 10543 10548 10550 10556 10564 10575 10584 10593 10603 10614 10622 10633 10642 10648 10659 10667 10675 10684 10692 10700 10709 10716 10724 10733 10742 10747 10753 10756 10761 10762 10766 10770 10774 10776 10779 10780 10782 10784 10783 10783 10783 10782 10781 10779
10508 10515 10525 10532 10532 10537 10547 10560 10571 10582 10593 10605 10614 10621 10633 10639 10646 10656 10667 10676 10685 10692 10703 10711 10721 10730 10736 10739 10741 10743 10751 10759 10762 10765 10769 10771 10769 10776 10778 10776 10778 10776 10775 10774 10773
10482 10486 10494 10505 10512 10513 10521 10534 10548 10561 10574 10582 10589 10595 10609 10616 10623 10636 10647 10658 10667 10679 10688 10695 10708 10719 10707 10716 10728 10736 10744 10747 10749 10753 10758 10762 10760 10765 10771 10768 10769 10769 10768 10767 10766
10455 10461 10468 10475 10486 10492 10499 10513 10521 10531 10538 10548 10562 10577 10591 10599 10606 10615 10627 10639 10650 10662 10667 10682 10699 10686 10694 10706 10717 10724 10730 10732 10735 10741 10748 10752 10750 10754 10764 10761 10760 10761 10759 10759 10758
10425 10432 10438 10448 10457 10471 10480 10487 10488 10496 10499 10518 10537 10551 10563 10576 10586 10598 10610 10619 10632 10641 10655 10666 10672 10672 10683 10695 10705 10709 10714 10715 10723 10729 10737 10740 10741 10742 10751 10752 10750 10749 10749 10750 10749
10397 10403 10407 10412 10424 10439 10456 10458 10458 10457 10457 10489 10512 10534 10540 10554 10565 10578 10591 10600 10611 10624 10633 10646 10658 10664 10674 10684 10689 10696 10696 10700 10708 10713 10724 10728 10737 10733 10738 10740 10741 10740 10739 10740 10739
10362 10368 10378 10382 10401 10404 10420 10423 10425 10413 10406 10458 10482 10507 10521 10533 10552 10557 10563 10577 10594 10601 10611 10636 10634 10642 10655 10664 10669 10680 10681 10686 10694 10701 10710 10720 10726 10722 10726 10729 10728 10731 10731 10731 10730
10318 10327 10338 10347 10366 10379 10384 10385 10377 10366 10374 10433 10460 10477 10494 10516 10525 10529 10539 10558 10571 10581 10600 10611 10621 10632 10643 10648 10655 10666 10669 10674 10680 10687 10702 10707 10710 10722 10711 10716 10718 10719 10719 10721 10720
10270 10285 10292 10308 10333 10340 10339 10338 10328 10326 10370 10411 10448 10464 10473 10484 10495 10505 10520 10534 10549 10565 10588 10599 10609 10619 10624 10628 10638 10651 10653 10658 10663 10673 10692 10691 10691 10713 10705 10702 10705 10706 10708 10708 10709
10221 10236 10252 10267 10293 10292 10295 10292 10283 10324 10355 10399 10424 10433 10437 10451 10462 10478 10494 10509 10525 10544 10561 10571 10584 10600 10607 10612 10621 10622 10627 10638 10641 10657 10671 10678 10688 10698 10696 10692 10691 10694 10695 10696 10698
10172 10183 10201 10231 10250 10246 10252 10241 10274 10311 10349 10371 10385 10390 10404 10422 10442 10458 10475 10490 10502 10523 10537 10550 10562 10577 10584 10589 10595 10607 10617 10619 10627 10641 10653 10666 10680 10682 10683 10681 10680 10679 10681 10683 10686
10129 10139 10162 10190 10204 10202 10201 10223 10247 10283 10315 10329 10342 10369 10390 10408 10420 10437 10451 10474 10486 10500 10513 10527 10536 10554 10560 10565 10571 10589 10594 10598 10613 10628 10641 10655 10664 10668 10665 10665 10668 10667 10667 10669 10672
10088 10099 10129 10145 10153 10154 10157 10201 10231 10270 10278 10301 10319 10338 10367 10378 10393 10405 10425 10449 10459 10469 10480 10498 10512 10527 10535 10550 10562 10569 10577 10586 10594 10605 10622 10634 10648 10652 10652 10651 10653 10654 10655 10655 10657
10053 10068 10089 10095 10110 10127 10140 10175 10215 10224 10244 10264 10286 10310 10337 10360 10369 10384 10403 10425 10431 10444 10461 10475 10487 10499 10518 10527 10532 10544 10556 10564 10572 10590 10599 10612 10632 10639 10638 10637 10636 10638 10639 10642 10645
10022 10034 10044 10058 10080 10098 10122 10146 10180 10189 10210 10238 10265 10286 10311 10332 10345 10364 10375 10391 10405 10423 10437 10458 10462 10477 10487 10496 10512 10525 10540 10547 10556 10566 10582 10591 10621 10618 10622 10619 10619 10619 10624 10630 10632
9989 9996 10016 10031 10064 10074 10097 10121 10152 10172 10176 10208 10239 10257 10281 10296 10316 10336 10349 10365 10382 10402 10409 10428 10438 10451 10462 10480 10492 10505 10518 10524 10531 10542 10566 10576 10591 10597 10600 10602 10601 10606 10612 10616 10615
9960 9975 9997 10018 10036 10056 10074 10089 10114 10141 10149 10184 10206 10228 10253 10278 10296 10311 10326 10340 10351 10371 10392 10406 10423 10433 10443 10456 10472 10488 10498 10503 10514 10533 10541 10563 10567 10575 10578 10579 10587 10596 10598 10597 10598
9937 9955 9975 9995 10008 10025 10042 10051 10100 10125 10135 10159 10169 10217 10238 10253 10277 10301 10317 10326 10337 10350 10371 10388 10402 10413 10419 10433 10448 10461 10470 10481 10502 10510 10526 10542 10549 10552 10553 10560 10569 10574 10579 10584 10585
9920 9933 9951 9971 9984 9999 10020 10039 10071 10102 10121 10140 10162 10185 10210 10225 10249 10272 10284 10293 10304 10317 10339 10361 10374 10385 10396 10411 10423 10433 10464 10466 10478 10490 10503 10516 10525 10519 10531 10543 10550 10556 10563 10565 10566